Lid_Strength_Index
1 1 0 0 -1 -1 -1 -1 -1 0 1 1 1 2 2 2 3 7 9 4 5 2 4 8 8 9 9 10 10 11 12 14 13 13 12 10 10 10 8 9 7 6 6 4 3
0 1 1 -0 -1 -1 -1 -1 -1 0 1 1 1 2 3 2 8 9 5 1 1 1 8 9 9 8 9 11 11 12 13 12 10 11 11 10 10 9 8 8 10 8 5 3 3
1 1 1 -0 -1 -1 -1 -1 -0 0 1 1 2 2 3 3 9 9 2 1 -0 2 7 8 8 9 10 10 12 11 12 11 10 10 9 9 10 10 9 10 7 8 6 4 4
0 1 1 1 -0 -1 -1 -1 -0 -0 1 1 2 3 4 6 11 8 2 1 -0 7 9 9 10 11 12 12 11 13 11 11 9 9 9 10 10 9 9 8 6 5 4 4 4
1 2 1 1 1 -1 -1 -1 -1 -0 1 1 3 3 6 10 10 6 1 1 3 9 10 10 11 11 12 12 12 14 14 11 9 9 10 10 11 10 10 10 5 4 4 5 4
2 2 1 1 1 -1 -1 -1 -1 -0 1 2 3 4 8 12 7 4 3 5 8 9 11 10 10 9 11 11 11 13 13 13 11 10 11 11 12 10 10 6 6 5 5 5 4
2 2 1 1 1 1 -1 -1 -1 -0 -0 1 2 4 9 10 7 5 6 7 8 9 10 10 10 10 11 11 11 12 14 14 14 12 12 11 12 11 11 6 7 6 5 5 4
1 3 2 1 1 1 -0 -1 -0 -0 0 1 2 6 12 6 7 6 7 8 8 8 9 9 9 11 12 12 13 14 15 17 15 13 13 11 14 10 9 7 8 7 6 5 5
0 3 3 3 1 1 0 -0 -0 -0 0 1 4 7 12 5 8 8 8 8 8 9 9 8 9 12 13 15 17 17 18 18 17 13 14 13 13 11 10 7 8 7 6 6 5
-0 2 3 2 1 1 0 0 -1 1 2 4 4 7 8 11 8 8 9 8 9 9 10 11 13 14 15 16 17 18 17 18 17 14 15 15 13 13 12 9 7 7 7 6 6
-1 3 2 2 2 1 0 2 6 6 6 8 9 8 8 8 7 9 8 9 10 11 15 14 15 17 15 14 14 15 16 17 17 15 15 14 13 12 13 14 12 11 10 8 6
-0 1 1 2 2 1 1 5 6 7 9 6 6 7 5 7 10 8 8 11 13 16 14 15 16 14 13 13 14 15 16 17 17 16 15 16 14 13 13 13 13 12 13 11 11
-0 1 1 1 1 1 3 3 3 4 9 9 7 7 6 6 10 10 10 12 14 16 16 16 15 13 13 14 15 16 17 18 17 17 17 17 17 15 13 13 13 13 12 12 11
0 2 1 0 3 2 4 3 3 4 13 12 9 8 6 5 8 7 8 10 15 16 16 16 14 14 15 15 15 17 15 14 16 18 19 18 21 18 16 14 13 12 13 12 12
0 2 2 -0 3 4 2 2 3 5 20 11 10 6 7 7 7 8 7 11 14 15 15 17 15 15 16 15 14 16 14 15 17 19 20 21 21 19 19 17 14 12 11 11 11
1 2 2 1 3 2 3 3 6 14 20 13 10 11 10 10 9 8 9 10 12 14 15 16 14 13 13 13 13 13 15 16 18 18 21 19 20 20 19 16 14 13 12 10 11
2 2 2 1 6 1 3 6 14 18 11 14 14 12 11 13 12 11 12 13 15 18 18 17 17 15 13 14 14 15 16 21 21 22 21 21 21 18 16 15 14 13 13 13 13
3 2 2 2 1 2 5 11 18 15 15 12 13 12 13 13 13 11 13 14 11 15 17 19 20 16 14 14 16 16 16 20 24 23 22 20 21 19 16 13 14 13 13 13 14
3 4 3 2 1 3 8 15 16 14 13 13 13 14 16 13 14 13 12 13 12 13 17 19 19 15 14 13 12 16 17 15 19 25 22 21 19 16 16 15 14 13 13 13 13
5 5 4 2 1 5 11 13 14 11 11 11 15 14 17 15 16 14 14 12 13 12 12 16 18 15 14 13 14 14 12 17 19 23 24 22 21 20 17 14 14 13 13 13 13
5 7 4 1 3 9 14 13 13 10 10 12 14 14 15 15 15 15 15 14 11 13 14 14 16 17 15 16 16 16 17 17 16 18 22 24 21 17 14 13 13 13 12 12 12
5 10 3 2 11 12 13 12 10 11 10 12 12 13 14 13 15 14 15 14 10 12 14 13 15 19 17 15 14 15 14 14 17 20 20 20 20 16 15 14 13 13 12 12 11
9 11 3 3 14 14 11 11 11 11 11 12 13 13 12 13 15 14 14 11 11 12 13 13 17 20 18 15 14 16 16 15 16 17 20 20 20 15 14 13 13 13 13 12 11
10 12 9 6 8 12 12 12 13 10 11 11 12 11 12 13 13 14 14 12 11 10 9 10 14 16 19 16 15 17 16 16 15 18 19 18 18 15 14 13 13 12 12 12 12
11 12 13 12 13 11 10 11 13 13 11 11 13 12 13 15 15 15 14 13 11 9 10 11 16 16 17 17 14 15 14 14 15 14 16 16 16 14 14 13 13 12 12 12 11
12 12 12 11 10 11 10 12 13 13 12 12 13 12 12 15 13 16 14 14 14 13 12 13 19 16 19 16 15 16 14 13 13 14 14 16 17 15 13 14 13 11 11 11 11
10 11 11 11 11 11 11 12 12 11 12 10 11 13 13 13 11 11 10 10 11 11 13 14 17 17 23 18 16 17 16 14 14 13 14 17 14 13 14 14 13 12 11 11 11